Regional Weather Roundup
Issued by NWS

Home | Current Version | Previous Version | Graphics & Text | Print | Product List | Glossary On
Versions: 1 2 3 4 5 6 7 8 9 10 11 12 13 14 15 16 17 18 19 20 21 22 23 24 25 26 27 28 29 30 31 32 33 34 35 36 37 38 39 40 41 42 43 44 45 46 47 48 49 50
000
ASUS43 KMKX 012100
RWRWI

WISCONSIN REGIONAL WEATHER ROUNDUP
NATIONAL WEATHER SERVICE MILWAUKEE/SULLIVAN WI
400 PM CDT SAT AUG 01 2015

NOTE: "FAIR" INDICATES FEW OR NO CLOUDS BELOW 12,000 FEET WITH NO
SIGNIFICANT WEATHER AND/OR OBSTRUCTIONS TO VISIBILITY.

WIZ001-002-006>008-014>016-023>028-012200-
NORTHWEST WISCONSIN

CITY           SKY/WX    TMP DP  RH WIND       PRES   REMARKS
SUPERIOR ARPT  MOSUNNY   83  56  39 W12G18    29.83F HX  82
ASHLAND        MOSUNNY   82  53  36 SW12      29.84F HX  81
HAYWARD        SUNNY     81  52  36 VRB6      29.88F HX  80
SIREN          SUNNY     82  51  33 W12       29.89F HX  81
CUMBERLAND     SUNNY     77  50  38 W9        29.91F
RICE LAKE      SUNNY     80  51  37 SW12      29.92F
CHETEK         SUNNY     80  57  44 W3        29.91F HX  80
LADYSMITH      MOSUNNY   79  52  38 W8        29.92F
EAU CLAIRE     NOT AVBL
MENOMONIE      SUNNY     84  55  35 SW8       29.90F HX  83
NEW RICHMOND   MOSUNNY   82  52  35 W8        29.90F HX  81
OSCEOLA        MOSUNNY   82  53  36 SW6       29.92F HX  81
$$

WIZ003>005-009-010-017-018-012200-
NORTH CENTRAL WISCONSIN

CITY           SKY/WX    TMP DP  RH WIND       PRES   REMARKS
MANITOWISH WTR PTSUNNY   74  51  44 W10       29.89S
ARBOR VITAE    MOSUNNY   77  53  43 W10G16    29.89F
WOODRUFF       MOSUNNY   77  53  43 W10G16    29.89F
RHINELANDER    PTSUNNY   79  50  36 W15       29.90F
EAGLE RIVER    MOSUNNY   76  44  32 W10G21    29.88F
LAND O LAKES   PTSUNNY   75  46  36 NW8       29.89F
PHILLIPS       MOSUNNY   77  53  42 W8G21     29.89F
TOMAHAWK       MOSUNNY   78  51  38 W13G18    29.91F
MEDFORD        MOSUNNY   77  53  43 W10       29.92F
MERRILL        NOT AVBL
$$

WIZ029-030-035-036-043>047-012200-
CENTRAL WISCONSIN

CITY           SKY/WX    TMP DP  RH WIND       PRES   REMARKS
WAUSAU         PTSUNNY   82  51  34 W15G22    29.89F HX  81
MOSINEE        NOT AVBL
MARSHFIELD     SUNNY     81  51  35 W14G21    29.92S HX  80
STEVENS POINT  SUNNY     79  50  36 W13G18    29.92F
WAUPACA        SUNNY     85  45  25 NW14      29.90S HX  82
WAUTOMA        NOT AVBL
WISC RAPIDS    SUNNY     84  48  28 NW14G20   29.92F HX  82
CAMP DOUGLAS   NOT AVBL
$$

WIZ011>013-019>022-031-037>040-048>050-012200-
NORTHEAST WISCONSIN

CITY           SKY/WX    TMP DP  RH WIND       PRES   REMARKS
ANTIGO         PTSUNNY   75  51  42 W10G18    29.91F
SHAWANO        MOSUNNY   80  48  31 W9        29.89S
OCONTO         MOSUNNY   82  51  33 W6G17     29.85F HX  81
STURGEON BAY   SUNNY     81  52  36 W12G17    29.88F HX  80
GREEN BAY      MOSUNNY   83  51  33 W10       29.88S HX  81
MANITOWOC      NOT AVBL
APPLETON       MOSUNNY   81  45  28 NW14G23   29.90F
CLINTONVILLE   MOSUNNY   81  43  26 W13       29.88F
OSHKOSH        MOSUNNY   83  52  34 NW12      29.89F HX  82
$$

WIZ032>034-041-042-053>061-012200-
SOUTHWEST WISCONSIN

CITY           SKY/WX    TMP DP  RH WIND       PRES   REMARKS
LA CROSSE      SUNNY     85  62  46 NW6       29.90F HX  85
SPARTA         SUNNY     85  55  35 W13       29.92F HX  83
VIROQUA        SUNNY     82  62  50 NW12      29.95F HX  82
BOSCOBEL       SUNNY     90  61  37 NW10      29.92F HX  90
PRAIRIE DU CHI SUNNY     88  53  30 W14       29.92S HX  86
PLATTEVILLE    MOSUNNY   85  63  46 W9        29.94F HX  86
$$

WIZ056-057-062-063-064-067-068-012200-
SOUTH CENTRAL WISCONSIN

CITY           SKY/WX    TMP DP  RH WIND       PRES   REMARKS
REEDSBURG      MOSUNNY   83  59  43 W12       29.92S HX  83
BARABOO/DELLS  MOSUNNY   85  51  30 NW12      29.92S HX  83
LONE ROCK      NOT AVBL
MINERAL POINT  SUNNY     86  55  35 NW10G18   29.94S HX  84
MADISON        MOSUNNY   85  61  44 NW7       29.91S HX  85
MIDDLETON      MOSUNNY   87  58  37 W10       29.92F HX  86
WATERTOWN      SUNNY     81  62  52 W8        29.91F HX  82
MONROE         MOSUNNY   86  57  37 NW16      29.93S HX  85
JANESVILLE     NOT AVBL
$$

WIZ051-052-058>065-066-070>072-012200-
SOUTHEAST WISCONSIN

CITY           SKY/WX    TMP DP  RH WIND       PRES   REMARKS
MILWAUKEE      PTSUNNY   84  57  39 W8        29.90F HX  83
WAUKESHA       MOSUNNY   81  55  41 W12       29.93F HX  80
MILWAUKEE/TIMM MOSUNNY   81  54  39 W13G20    29.91F HX  80
RACINE         MOSUNNY   84  59  42 VRB7      29.92F HX  84
BURLINGTON     MOSUNNY   83  58  42 W8        29.91F HX  83
KENOSHA        MOSUNNY   85  62  46 W9        29.91F HX  85
FOND DU LAC    MOSUNNY   83  55  38 NW9       29.90F HX  82
SHEBOYGAN      MOSUNNY   82  53  36 W9        29.89F HX  81
WEST BEND      MOSUNNY   81  50  34 W12       29.91F HX  80
JUNEAU         SUNNY     79  58  49 SW8       29.93F HX  80
$$

LSZ147-162-012200-
LAKE SUPERIOR

STATION/POSITION TIME  TEMP    WIND        PRES    WAVE
                       AIR SEA DIR/SP/G            HT/PER
                 (UTC) (F)     (DEG/KT/KT) (MB)    (FT/S)
W MID LAKE BUOY  1950   60 54  210/ 12/ 14 1009.6F   2/ 4
DEVILS ISLAND    2000   72     230/  9/ 14 1009.8F
PORT WING        2000   78     260/ 10/ 14 1010.5F
SAXON HARBOR     2040   78                 1010.2F
$$

LMZ867-665-643>646-012200-
LAKE MICHIGAN

STATION/POSITION TIME  TEMP    WIND        PRES    WAVE
                       AIR SEA DIR/SP/G            HT/PER
                 (UTC) (F)     (DEG/KT/KT) (MB)    (FT/S)
CHAMBERS ISLAND  2000   78     250/  4/ 10 1010.5F
S GREEN BAY BUOY 1900   72 71  260/  6/  8 1013.3F
N MID LAKE BUOY  1950   69 68  210/ 12/ 14 1010.4F   1/ 3
NORTHPORT PIER   2000   78     240/  5/ 15 1010.5F
SISTER BAY       1914   79     280/  8/  9   N/A
ALGOMA LAKESHORE 2012          290/ 11/ 13   N/A
KEWAUNEE LAKESHO 2000   80     280/  9/ 12 1011.2F
SHEBOYGAN LAKESH 2000   80     290/ 10/ 13 1012.4F
PORT WASHINGTON  2000   85     320/  7/ 15 1012.9
ATWATER BUOY     2000   77 68  270/  8/ 10 1014.5F
MILWAUKEE LAKESH 2000   79     280/ 12/ 17   N/A
KENOSHA   LAKESH 2000   74     120/ 13/ 16 1012.5F
$$

TC  - TEMPERATURE IN CELSIUS
VSB - VISIBILITY IN STATUTE MILES
WCI - WIND CHILL INDEX
HX  - HEAT INDEX



USA.gov is the U.S. government's official web portal to all federal, state and local government web resources and services.